Find Aerocube 16A

NORAD ID: 59290 Int'l Des: 2024-053 Owner: AERO Country: US operational
LEOCIRCULAR

Live-Position

3D-Globus wird geladen...

Über Aerocube 16A

Beschreibung wird geladen...

Nächste Überflüge

Passes for default location (London). Set your location on the main map for personalized predictions.

Höhenverlauf

Loading altitude history...

Zweizeiliger Elementsatz

1 59290U 24053C 26105.80023321 .00008658 00000-0 20869-3 0 9997
2 59290 49.9892 281.5286 0001813 91.5496 268.5674 15.41996552111476
Epoch: 15. Apr. 2026 • Age: 11 hours

Aktueller Status

Höhe 442.7 km
Geschwindigkeit 7.65 km/s
Subsatellitenpunkt 41.56°N, 107.79°E
Startdatum 21. März 2024
Alter 2 years
Typ other

Technische Details

Klassifizierung Payload
Masse 10.00 kg
Trockenmasse 10.00 kg
Gesamtmasse 10.00 kg
Länge 2.00 m
Durchmesser 1.00 m
Spannweite 5.00 m
Form Box + pan
Hersteller AERO
Bus-Typ Cubesat 6U
Phasenstatus In Orbit
Besitzer/Staat AERO/US

Most Searched